Location: West Cummington
(42.4920°N, 72.9680°W)
Time: 09:32:51
(UTC-04:00)

ATLAS 2AS CENTAUR R/B - Visible Passes

Search period start: 22 September 2017 00:00
Search period end: 02 October 2017 00:00
Orbit: 906 x 1306 km, 63.7° (Epoch: 21 September)

Date Brightness Start Highest point End Pass type
(mag) Time Alt. Az. Time Alt. Az. Time Alt. Az.
22 Sep 3.7 20:49:20 10° NNW 20:56:47 38° NE 20:58:53 33° ENE visible
22 Sep 3.7 22:40:27 10° NW 22:46:19 48° WNW 22:46:19 48° WNW visible
23 Sep 4.1 20:04:33 10° NNW 20:11:25 29° NNE 20:15:31 19° ENE visible
23 Sep 2.9 21:55:28 10° NW 22:02:57 79° NW 22:02:57 79° NW visible
23 Sep 5.1 23:48:15 10° WNW 23:50:24 15° WNW 23:50:24 15° WNW visible
24 Sep 4.4 19:19:42 10° NNW 19:25:54 23° NNE 19:31:52 10° ENE visible
24 Sep 2.9 21:10:36 10° NNW 21:18:37 64° NE 21:19:38 59° E visible
24 Sep 4.4 23:02:25 10° NW 23:07:05 28° W 23:07:05 28° W visible
25 Sep 3.4 20:25:48 10° NNW 20:33:31 46° NE 20:36:22 33° E visible
25 Sep 3.6 22:17:05 10° NW 22:23:48 47° W 22:23:48 47° W visible
26 Sep 3.8 19:41:01 10° NNW 19:48:14 34° NE 19:53:09 18° E visible
26 Sep 2.9 21:32:01 10° NW 21:39:59 73° WSW 21:40:36 70° SSW visible
26 Sep 5.1 23:25:53 10° WNW 23:28:03 13° W 23:28:03 13° W visible
27 Sep 4.2 18:56:12 10° NNW 19:02:48 26° NNE 19:09:07 10° E visible
27 Sep 2.9 20:47:05 10° NW 20:55:10 79° NE 20:57:26 50° SE visible
27 Sep 4.5 22:39:24 10° WNW 22:44:54 24° WSW 22:44:54 24° WSW visible
28 Sep 3.2 20:02:15 10° NNW 20:10:10 56° NE 20:14:22 27° ESE visible
28 Sep 3.9 21:53:49 10° NW 22:00:54 38° WSW 22:01:49 36° SW visible
29 Sep 3.6 19:17:28 10° NNW 19:25:00 40° NE 19:31:21 13° ESE visible
29 Sep 3.3 21:08:37 10° NW 21:16:22 58° WSW 21:18:50 41° S visible
30 Sep 3.0 20:23:37 10° NW 20:31:39 85° SW 20:35:56 29° SSE visible
30 Sep 4.8 22:16:39 10° WNW 22:21:26 18° WSW 22:23:24 16° WSW visible
01 Oct 3.0 19:38:44 10° NNW 19:46:46 68° NE 19:53:09 15° SE visible
01 Oct 4.4 21:30:41 10° NW 21:37:08 29° WSW 21:40:37 20° SSW visible
